Time,TemperatureF,DewpointF,PressureIn,WindDirection,WindDirectionDegrees,WindSpeedMPH,WindSpeedGustMPH,Humidity,HourlyPrecipIn,Conditions,Clouds,dailyrainin,SoftwareType,DateUTC
2013-03-19 00:04:00,46.9,44.0,30.09,WNW,290,0.0,0.0,88,0.00,,,0.00,weatherlink.com 1.10,2013-03-19 07:04:00,
2013-03-19 00:19:00,46.7,43.0,30.08,WNW,290,0.0,1.0,88,0.00,,,0.00,weatherlink.com 1.10,2013-03-19 07:19:00,
2013-03-19 00:35:00,46.7,44.0,30.08,WNW,290,0.0,1.0,89,0.00,,,0.00,weatherlink.com 1.10,2013-03-19 07:35:00,
2013-03-19 00:50:00,46.8,44.0,30.07,WNW,290,0.0,0.0,90,0.00,,,0.00,weatherlink.com 1.10,2013-03-19 07:50:00,
2013-03-19 01:05:00,47.0,44.0,30.07,WNW,290,0.0,0.0,89,0.00,,,0.00,weatherlink.com 1.10,2013-03-19 08:05:00,
2013-03-19 01:20:00,46.9,44.0,30.07,WNW,290,0.0,1.0,89,0.00,,,0.00,weatherlink.com 1.10,2013-03-19 08:20:00,
2013-03-19 01:35:00,47.3,44.0,30.08,WNW,290,0.0,1.0,89,0.00,,,0.00,weatherlink.com 1.10,2013-03-19 08:35:00,
2013-03-19 01:50:00,46.9,44.0,30.07,WNW,290,0.0,0.0,88,0.00,,,0.00,weatherlink.com 1.10,2013-03-19 08:50:00,
2013-03-19 02:05:00,46.6,44.0,30.08,WNW,290,0.0,1.0,90,0.00,,,0.00,weatherlink.com 1.10,2013-03-19 09:05:00,
2013-03-19 02:20:00,46.4,44.0,30.08,WNW,290,0.0,0.0,90,0.00,,,0.00,weatherlink.com 1.10,2013-03-19 09:20:00,
2013-03-19 02:35:00,46.0,44.0,30.07,WNW,290,0.0,2.0,91,0.00,,,0.00,weatherlink.com 1.10,2013-03-19 09:35:00,
2013-03-19 02:50:00,45.6,43.0,30.07,WNW,290,0.0,1.0,90,0.00,,,0.00,weatherlink.com 1.10,2013-03-19 09:50:00,
2013-03-19 03:05:00,45.1,42.0,30.07,WNW,290,0.0,0.0,90,0.00,,,0.00,weatherlink.com 1.10,2013-03-19 10:05:00,
2013-03-19 03:20:00,44.6,42.0,30.06,WNW,290,0.0,0.0,90,0.00,,,0.00,weatherlink.com 1.10,2013-03-19 10:20:00,
2013-03-19 03:35:00,44.0,42.0,30.06,WNW,290,0.0,0.0,91,0.00,,,0.00,weatherlink.com 1.10,2013-03-19 10:35:00,
2013-03-19 03:50:00,44.0,42.0,30.06,WNW,290,0.0,0.0,91,0.00,,,0.00,weatherlink.com 1.10,2013-03-19 10:50:00,
2013-03-19 04:05:00,43.1,41.0,30.06,WNW,290,0.0,1.0,92,0.00,,,0.00,weatherlink.com 1.10,2013-03-19 11:05:00,
2013-03-19 04:20:00,42.6,41.0,30.06,WNW,290,0.0,0.0,92,0.00,,,0.00,weatherlink.com 1.10,2013-03-19 11:20:00,
2013-03-19 04:35:00,42.2,40.0,30.05,WNW,290,0.0,1.0,91,0.00,,,0.00,weatherlink.com 1.10,2013-03-19 11:35:00,
2013-03-19 04:50:00,42.0,40.0,30.06,WNW,290,0.0,0.0,92,0.00,,,0.00,weatherlink.com 1.10,2013-03-19 11:50:00,
2013-03-19 05:05:00,41.6,40.0,30.06,WNW,290,0.0,0.0,92,0.00,,,0.00,weatherlink.com 1.10,2013-03-19 12:05:00,
2013-03-19 05:20:00,41.5,39.0,30.07,WNW,290,0.0,0.0,92,0.00,,,0.00,weatherlink.com 1.10,2013-03-19 12:20:00,
2013-03-19 05:35:00,40.6,39.0,30.07,WNW,290,0.0,0.0,92,0.00,,,0.00,weatherlink.com 1.10,2013-03-19 12:35:00,
2013-03-19 05:50:00,40.8,39.0,30.07,WNW,290,0.0,0.0,92,0.00,,,0.00,weatherlink.com 1.10,2013-03-19 12:50:00,
2013-03-19 06:05:00,40.6,39.0,30.08,WNW,290,0.0,0.0,93,0.00,,,0.00,weatherlink.com 1.10,2013-03-19 13:05:00,
2013-03-19 06:20:00,40.4,39.0,30.08,WNW,290,0.0,0.0,93,0.00,,,0.00,weatherlink.com 1.10,2013-03-19 13:20:00,
2013-03-19 06:35:00,40.1,38.0,30.08,WNW,290,0.0,1.0,92,0.00,,,0.00,weatherlink.com 1.10,2013-03-19 13:35:00,
2013-03-19 06:50:00,39.9,38.0,30.08,WNW,290,0.0,1.0,93,0.00,,,0.00,weatherlink.com 1.10,2013-03-19 13:50:00,
2013-03-19 07:05:00,39.7,38.0,30.09,WNW,290,0.0,0.0,93,0.00,,,0.00,weatherlink.com 1.10,2013-03-19 14:05:00,
2013-03-19 07:20:00,39.6,38.0,30.09,WNW,290,0.0,0.0,93,0.00,,,0.00,weatherlink.com 1.10,2013-03-19 14:20:00,
2013-03-19 07:35:00,40.2,39.0,30.09,WNW,290,0.0,1.0,94,0.00,,,0.00,weatherlink.com 1.10,2013-03-19 14:35:00,
2013-03-19 07:50:00,42.2,41.0,30.09,WNW,290,0.0,2.0,94,0.00,,,0.00,weatherlink.com 1.10,2013-03-19 14:50:00,
2013-03-19 08:05:00,42.9,41.0,30.09,WNW,290,0.0,0.0,94,0.00,,,0.00,weatherlink.com 1.10,2013-03-19 15:05:00,
2013-03-19 08:20:00,43.4,42.0,30.10,WNW,290,0.0,1.0,94,0.00,,,0.00,weatherlink.com 1.10,2013-03-19 15:20:00,
2013-03-19 08:35:00,44.3,43.0,30.10,WNW,290,0.0,1.0,94,0.00,,,0.00,weatherlink.com 1.10,2013-03-19 15:35:00,
2013-03-19 08:50:00,45.6,44.0,30.10,WNW,290,0.0,1.0,93,0.00,,,0.00,weatherlink.com 1.10,2013-03-19 15:50:00,
2013-03-19 09:05:00,47.6,45.0,30.11,West,273,3.0,3.0,90,0.00,,,0.00,weatherlink.com 1.10,2013-03-19 16:05:00,
2013-03-19 09:20:00,48.9,44.0,30.11,West,269,0.0,2.0,83,0.00,,,0.00,weatherlink.com 1.10,2013-03-19 16:20:00,
2013-03-19 09:35:00,50.7,44.0,30.11,West,269,0.0,1.0,78,0.00,,,0.00,weatherlink.com 1.10,2013-03-19 16:35:00,
2013-03-19 09:51:00,51.8,42.0,30.11,WNW,296,0.0,2.0,70,0.00,,,0.00,weatherlink.com 1.10,2013-03-19 16:51:00,
2013-03-19 10:06:00,52.7,44.0,30.11,WNW,296,1.0,1.0,71,0.00,,,0.00,weatherlink.com 1.10,2013-03-19 17:06:00,
2013-03-19 10:21:00,53.4,43.0,30.11,ESE,115,1.0,3.0,68,0.00,,,0.00,weatherlink.com 1.10,2013-03-19 17:21:00,
2013-03-19 10:36:00,53.9,44.0,30.11,ESE,115,0.0,2.0,69,0.00,,,0.00,weatherlink.com 1.10,2013-03-19 17:36:00,
2013-03-19 11:06:00,54.7,43.0,30.11,SSW,207,0.0,2.0,66,0.00,,,0.00,weatherlink.com 1.10,2013-03-19 18:06:00,
2013-03-19 11:21:00,55.5,44.0,30.11,SSW,207,0.0,1.0,66,0.00,,,0.00,weatherlink.com 1.10,2013-03-19 18:21:00,
2013-03-19 11:36:00,55.9,45.0,30.11,NW,306,2.0,4.0,66,0.00,,,0.00,weatherlink.com 1.10,2013-03-19 18:36:00,
2013-03-19 11:51:00,56.2,42.0,30.12,WNW,294,2.0,2.0,59,0.00,,,0.00,weatherlink.com 1.10,2013-03-19 18:51:00,
2013-03-19 12:06:00,56.6,42.0,30.12,NW,305,0.0,3.0,59,0.00,,,0.00,weatherlink.com 1.10,2013-03-19 19:06:00,
2013-03-19 12:21:00,57.3,44.0,30.12,NW,305,0.0,3.0,61,0.00,,,0.00,weatherlink.com 1.10,2013-03-19 19:21:00,
2013-03-19 12:36:00,57.4,45.0,30.12,NW,305,1.0,2.0,63,0.00,,,0.00,weatherlink.com 1.10,2013-03-19 19:36:00,
2013-03-19 12:51:00,57.3,46.0,30.12,NW,305,0.0,2.0,65,0.00,,,0.00,weatherlink.com 1.10,2013-03-19 19:51:00,
2013-03-19 13:06:00,56.8,47.0,30.12,NNW,327,1.0,4.0,70,0.00,,,0.00,weatherlink.com 1.10,2013-03-19 20:06:00,
2013-03-19 13:36:00,57.3,47.0,30.11,NW,322,0.0,2.0,69,0.01,,,0.01,weatherlink.com 1.10,2013-03-19 20:36:00,
2013-03-19 13:51:00,57.6,48.0,30.10,NW,322,2.0,3.0,70,0.01,,,0.01,weatherlink.com 1.10,2013-03-19 20:51:00,
2013-03-19 14:06:00,58.0,47.0,30.11,NW,323,2.0,3.0,67,0.01,,,0.01,weatherlink.com 1.10,2013-03-19 21:06:00,
2013-03-19 14:21:00,57.8,47.0,30.11,WNW,290,2.0,4.0,67,0.00,,,0.01,weatherlink.com 1.10,2013-03-19 21:21:00,
2013-03-19 14:36:00,57.6,47.0,30.11,NW,307,4.0,5.0,67,0.00,,,0.01,weatherlink.com 1.10,2013-03-19 21:36:00,
2013-03-19 14:51:00,57.8,46.0,30.10,NNW,334,4.0,5.0,65,0.00,,,0.01,weatherlink.com 1.10,2013-03-19 21:51:00,
2013-03-19 15:06:00,57.7,46.0,30.09,NW,319,4.0,4.0,66,0.00,,,0.01,weatherlink.com 1.10,2013-03-19 22:06:00,
2013-03-19 15:21:00,57.6,47.0,30.09,NW,319,1.0,4.0,68,0.00,,,0.01,weatherlink.com 1.10,2013-03-19 22:21:00,
2013-03-19 15:36:00,57.9,47.0,30.08,NW,319,0.0,3.0,68,0.00,,,0.01,weatherlink.com 1.10,2013-03-19 22:36:00,
2013-03-19 16:06:00,58.1,48.0,30.08,NW,319,0.0,1.0,70,0.00,,,0.01,weatherlink.com 1.10,2013-03-19 23:06:00,
2013-03-19 16:21:00,58.0,49.0,30.09,NW,319,1.0,2.0,71,0.00,,,0.01,weatherlink.com 1.10,2013-03-19 23:21:00,
2013-03-19 16:36:00,57.8,49.0,30.10,NW,319,0.0,2.0,73,0.00,,,0.01,weatherlink.com 1.10,2013-03-19 23:36:00,
2013-03-19 16:51:00,58.1,50.0,30.10,SW,214,0.0,2.0,74,0.00,,,0.01,weatherlink.com 1.10,2013-03-19 23:51:00,
2013-03-19 17:06:00,58.2,49.0,30.10,SW,214,0.0,2.0,72,0.00,,,0.01,weatherlink.com 1.10,2013-03-20 00:06:00,
2013-03-19 17:21:00,58.5,49.0,30.10,SSE,161,0.0,3.0,71,0.00,,,0.01,weatherlink.com 1.10,2013-03-20 00:21:00,
2013-03-19 17:36:00,58.4,44.0,30.10,West,270,1.0,4.0,60,0.00,,,0.01,weatherlink.com 1.10,2013-03-20 00:36:00,
2013-03-19 17:51:00,58.0,45.0,30.11,SW,214,0.0,2.0,63,0.00,,,0.01,weatherlink.com 1.10,2013-03-20 00:51:00,
2013-03-19 18:06:00,57.2,45.0,30.11,SSW,207,0.0,4.0,64,0.00,,,0.01,weatherlink.com 1.10,2013-03-20 01:06:00,
2013-03-19 18:21:00,56.1,43.0,30.11,South,177,2.0,5.0,62,0.00,,,0.01,weatherlink.com 1.10,2013-03-20 01:21:00,
2013-03-19 18:36:00,53.7,43.0,30.12,South,173,1.0,4.0,67,0.01,,,0.02,weatherlink.com 1.10,2013-03-20 01:36:00,
2013-03-19 18:51:00,51.5,40.0,30.11,South,174,2.0,4.0,66,0.02,,,0.03,weatherlink.com 1.10,2013-03-20 01:51:00,
2013-03-19 19:06:00,50.1,44.0,30.12,South,174,0.0,0.0,79,0.03,,,0.04,weatherlink.com 1.10,2013-03-20 02:06:00,
2013-03-19 19:21:00,48.7,43.0,30.12,South,174,0.0,2.0,80,0.04,,,0.05,weatherlink.com 1.10,2013-03-20 02:21:00,
2013-03-19 19:36:00,47.9,43.0,30.12,South,174,0.0,1.0,84,0.03,,,0.05,weatherlink.com 1.10,2013-03-20 02:36:00,
2013-03-19 19:51:00,47.5,43.0,30.11,South,174,0.0,1.0,85,0.03,,,0.06,weatherlink.com 1.10,2013-03-20 02:51:00,
2013-03-19 20:06:00,47.1,44.0,30.11,South,174,0.0,1.0,87,0.03,,,0.07,weatherlink.com 1.10,2013-03-20 03:06:00,
2013-03-19 20:21:00,46.9,44.0,30.10,South,174,0.0,0.0,88,0.02,,,0.07,weatherlink.com 1.10,2013-03-20 03:21:00,
2013-03-19 20:36:00,46.9,44.0,30.11,South,174,0.0,1.0,89,0.02,,,0.07,weatherlink.com 1.10,2013-03-20 03:36:00,
2013-03-19 20:51:00,46.9,44.0,30.10,South,174,1.0,1.0,90,0.01,,,0.07,weatherlink.com 1.10,2013-03-20 03:51:00,
2013-03-19 21:06:00,46.7,44.0,30.10,South,175,0.0,2.0,90,0.00,,,0.07,weatherlink.com 1.10,2013-03-20 04:06:00,
2013-03-19 21:21:00,46.7,44.0,30.10,South,175,1.0,1.0,91,0.00,,,0.07,weatherlink.com 1.10,2013-03-20 04:21:00,
2013-03-19 21:36:00,46.6,44.0,30.09,South,174,0.0,2.0,91,0.00,,,0.07,weatherlink.com 1.10,2013-03-20 04:36:00,
2013-03-19 21:51:00,46.4,44.0,30.09,South,174,1.0,3.0,91,0.00,,,0.07,weatherlink.com 1.10,2013-03-20 04:51:00,
2013-03-19 22:21:00,46.6,44.0,30.09,SSW,200,1.0,2.0,91,0.00,,,0.07,weatherlink.com 1.10,2013-03-20 05:21:00,
2013-03-19 22:36:00,46.5,44.0,30.10,SSW,200,2.0,2.0,92,0.00,,,0.07,weatherlink.com 1.10,2013-03-20 05:36:00,
2013-03-19 23:06:00,46.1,44.0,30.09,WNW,282,0.0,0.0,91,0.00,,,0.07,weatherlink.com 1.10,2013-03-20 06:06:00,
2013-03-19 23:21:00,46.1,44.0,30.09,WNW,282,2.0,2.0,91,0.00,,,0.07,weatherlink.com 1.10,2013-03-20 06:21:00,
2013-03-19 23:36:00,46.1,44.0,30.09,WNW,282,0.0,1.0,91,0.00,,,0.07,weatherlink.com 1.10,2013-03-20 06:36:00,
2013-03-19 23:51:00,46.1,44.0,30.09,WNW,282,1.0,1.0,91,0.00,,,0.07,weatherlink.com 1.10,2013-03-20 06:51:00,